Powrót do katalogu

SPACEMOBILE-011

AktywnyVLEO
NORAD 100242·PAYLOAD·🇺🇸 United States

Wystrzelony Aug 5, 2026 z Cape Canaveral Space Force Station

Loading…

Następne Przeloty (najbliższe 24 godziny)

TLE

ŚwieżeSource: Space-Track

Epoka: Sep 14, 2026, 09:50 UTC

1 A0242U 26179C   26257.40985279  .00000088  00000-0  21726-4 0  9997
2 A0242  52.9964 145.9114 0007139  99.9930 260.1867 15.13339027  6076

Śledź SPACEMOBILE-011 w czasie rzeczywistym z AllMySat

Download on the App Store